Location: Arbon
(43.0005°N, 0.7472°E)
Time: 22:52:00
(UTC+00:00)

Explorer 7 - Pass Details

Date: 28 November 2020
Orbit: 484 x 678 km, 50.3° (Epoch: 26 January)

Event Time Altitude Azimuth Distance (km) Brightness Sun altitude
Rises 01:07:43 0° 209° (SSW) 2,953 - -62.3°
Reaches altitude 10° 01:10:18 10° 199° (SSW) 2,019 - -62.0°
Maximum altitude 01:14:23 31° 138° (SE) 1,087 - -61.4°
Drops below altitude 10° 01:18:16 10° 76° (ENE) 1,925 - -60.9°
Sets 01:20:40 0° 66° (ENE) 2,792 - -60.6°
